weather.gov     
National Weather Service

Terminal Aerodrome Forecast
NWS Homepage
This page is being discontinued on March 12, 2014.
The same data is available at this site. Please update your bookmarks.
Thank you, and we apologize for the inconvenience.
Please send an email to SR-SRH.Webmaster@noaa.gov with any concerns.


Current Version
Previous Version:    01  02  03  04  05  06  07  08  09  10  11  12  13  14  15  16  17  18  19  20  21  22  23  24  25  26  27  28  29  30  
   31  
[Printable]
163
FTUS41 KBTV 301139
TAFMPV
TAF
KMPV 301139Z 3012/3112 21007KT 2SM -SN BR OVC035
      TEMPO 3012/3016 1 1/2SM -SN BR OVC020
     FM301600 31006KT 1 1/2SM -SN BR OVC020
     FM310000 32012G18KT 1 1/2SM -SN BR OVC022=


163
FTUS41 KBTV 301139
TAFMPV
TAF
KMPV 301139Z 3012/3112 21007KT 2SM -SN BR OVC035
      TEMPO 3012/3016 1 1/2SM -SN BR OVC020
     FM301600 31006KT 1 1/2SM -SN BR OVC020
     FM310000 32012G18KT 1 1/2SM -SN BR OVC022=




U.S. Dept. of Commerce
NOAA National Weather Service
1325 East West Highway
Silver Spring, MD 20910
E-mail: w-nws.webmaster@noaa.gov
Page last modified: May 16, 2007
NATIONAL WEATHER SERVICE: for Safety, for Work, for Fun - FOR LIFE